Location: Pallagorio
(39.3000°N, 16.9000°E)
Time: 01:29:32
(UTC+00:00)

Cosmos-2242 - Pass Details

Date: 24 January 2021
Orbit: 592 x 616 km, 82.5° (Epoch: 08 March)

Event Time Altitude Azimuth Distance (km) Brightness Sun altitude
Rises 17:52:39 0° 354° (N) 2,846 6.4 -21.0°
Reaches altitude 10° 17:54:52 10° 357° (N) 1,943 5.6 -21.4°
Maximum altitude 17:59:09 72° 82° (E) 635 2.8 -22.3°
Enters shadow 17:59:12 72° 88° (E) 636 2.8 -22.3°
Exits shadow 18:03:30 10° 167° (SSE) 1,972 5.6 -23.1°
Sets 18:05:39 0° 169° (S) 2,845 6.4 -23.5°
